Torna al catalogo

SL-14 R/B

AttivoPO
NORAD 25369·ROCKET BODY·🇷🇺 Russia

Lanciato Jun 15, 1998 da Plesetsk Cosmodrome

Loading…

Prossimi Passaggi (prossime 24 ore)

TLE

AggiornatoSource: Space-Track

Epoca: Sep 14, 2026, 14:48 UTC

1 25369U 98036G   26257.61682943  .00000062  00000-0  47090-3 0  9993
2 25369  82.5964  12.4943 0342965 307.5925  60.5154 12.14698289252420

Traccia SL-14 R/B in tempo reale con AllMySat

Download on the App Store